[[{"header":{"parameterUnit":"m.s-1","parameterCategory":1,"la1":30.2991,"la2":30.254,"lo1":-89.0895,"lo2":-89.0444,"dy":0.0017,"dx":0.0017,"nx":28,"ny":28,"refTime":"2025-05-20T09:00:00:Z","depth":0,"parameterNumber":2,"parameterNumberName":"U-component_of_WINDS"},"data":[0,0,0,0,0,0,0,0,0,0,0,0,0,0,0,0,0,0,0,0,0,0,0,0,0,0,0,0,0,0,0,0,0,0,0,0,0,0,0,0,0,0,0,0,0,0,0,0,0,0,0,0,0,0,0,0,0,0,-0.9174,-0.9175,0,-0.9245,-0.9246,-0.9247,-0.9282,-0.9282,-0.9282,-0.9282,-0.9355,-0.9357,-0.9359,0,0,0,0,0,0,0,0,0,0,0,0,0,-0.9071,-0.9073,-0.9174,-0.9175,-0.9176,-0.9245,-0.9246,-0.9247,-0.9282,-0.9282,-0.9282,-0.9282,-0.9355,-0.9357,-0.9359,0,0,0,0,0,0,0,0,0,0,0,0,0,-0.9126,-0.9074,-0.9174,-0.9202,-0.9205,-0.9245,-0.9246,-0.9247,-0.9282,-0.9282,-0.9282,-0.9282,-0.9354,-0.9357,-0.936,-0.9377,0,0,-0.9368,-0.937,0,0,0,0,0,0,0,0,-0.9123,-0.913,-0.9197,-0.92,-0.9203,-0.9255,-0.9237,-0.9291,-0.9282,-0.9253,-0.9282,-0.9282,-0.9322,-0.9327,-0.9341,-0.9381,-0.9384,-0.9369,-0.937,-0.9372,-0.9373,0,0,0,0,0,0,0,-0.9119,-0.9127,-0.9202,-0.9198,-0.9202,-0.9211,-0.9219,-0.9247,-0.9286,-0.9255,-0.9258,-0.9266,-0.9324,-0.9338,-0.9343,-0.9385,-0.9369,-0.9371,-0.9373,-0.9374,-0.9445,-0.9445,0,0,0,0,0,0,-0.9111,-0.9124,-0.92,-0.9204,-0.9162,-0.9213,-0.9222,-0.9238,-0.9286,-0.9293,-0.9266,-0.9267,-0.9333,-0.9339,-0.9345,-0.937,-0.9372,-0.9374,-0.9376,-0.9445,-0.9445,-0.9445,0,0,0,0,0,0,-0.9108,-0.9117,-0.9197,-0.9165,-0.9176,-0.9215,-0.9233,-0.9239,-0.9254,-0.9294,-0.9301,-0.9273,-0.9333,-0.9341,-0.9369,-0.9373,-0.9376,-0.9378,-0.9445,-0.9445,-0.9445,-0.942,0,0,0,0,0,0,-0.9105,-0.9116,-0.9123,-0.9165,-0.9177,-0.9219,-0.9233,-0.9241,-0.9258,-0.9261,-0.9303,-0.9309,-0.9334,-0.9365,-0.9372,-0.9377,-0.9381,-0.9445,-0.9445,-0.9445,-0.942,-0.9419,-0.9418,0,0,0,0,0,-0.9102,-0.9112,-0.9123,-0.9132,-0.9186,-0.9219,-0.9227,-0.9254,-0.9259,-0.9266,-0.9292,-0.9308,-0.9372,-0.9367,-0.9376,-0.9382,-0.9445,-0.9445,-0.9445,-0.9421,-0.9419,-0.9418,0,0,0,0,0,0,-0.907,-0.9118,-0.913,-0.9155,-0.9183,-0.9225,-0.9235,-0.9251,-0.9278,-0.9279,-0.9313,-0.9322,-0.9347,-0.9368,-0.9362,-0.9403,-0.941,-0.9412,-0.9388,-0.9387,-0.9386,-0.938,-0.9383,0,0,0,0,0,-0.9066,-0.9088,-0.9129,-0.9147,-0.9161,-0.9195,-0.9211,-0.923,-0.926,-0.9272,-0.93,-0.9329,-0.9356,-0.9373,-0.9399,-0.9424,-0.9434,-0.9432,-0.9431,-0.943,-0.9431,-0.9447,-0.9447,-0.9446,-0.9446,-0.9446,0,0,-0.9057,-0.9087,-0.9099,-0.9142,-0.9165,-0.9189,-0.9205,-0.9228,-0.9246,-0.9276,-0.9304,-0.9326,-0.9361,-0.9387,-0.94,-0.9405,-0.9434,-0.943,-0.9429,-0.9431,-0.9447,-0.9447,-0.9447,-0.9447,-0.9447,-0.9447,0,0,-0.9054,-0.9078,-0.9096,-0.912,-0.9155,-0.9179,-0.9183,-0.9224,-0.9239,-0.9269,-0.9291,-0.9314,-0.9358,-0.9383,-0.9401,-0.9409,-0.9425,-0.9416,-0.941,-0.9424,-0.9424,-0.9425,-0.9428,-0.9429,-0.9418,-0.9418,-0.9418,0,-0.9039,-0.9074,-0.9103,-0.9126,-0.9145,-0.9173,-0.9192,-0.9214,-0.9256,-0.9269,-0.9274,-0.9332,-0.9357,-0.939,-0.9392,-0.9406,-0.9413,-0.9411,-0.9422,-0.9423,-0.9423,-0.9427,-0.9428,-0.9416,-0.9417,-0.9417,-0.9417,0,-0.9055,-0.9079,-0.9089,-0.913,-0.915,-0.9171,-0.9204,-0.9221,-0.9239,-0.9262,-0.9292,-0.9324,-0.9358,-0.9367,-0.9384,-0.9403,-0.9405,-0.9416,-0.9423,-0.9421,-0.9426,-0.9427,-0.9415,-0.9415,-0.9415,-0.9416,0,0,-0.9032,-0.909,-0.9093,-0.9113,-0.9155,-0.9174,-0.9197,-0.9231,-0.9245,-0.9274,-0.9294,-0.9333,-0.9343,-0.9364,-0.9384,-0.9397,-0.9402,-0.9406,-0.9408,-0.9405,-0.9427,-0.9419,-0.942,-0.9414,-0.9414,-0.9414,-0.9424,0,-0.9035,-0.9076,-0.9104,-0.9135,-0.9158,-0.9186,-0.9206,-0.9234,-0.9257,-0.9281,-0.9306,-0.9333,-0.9344,-0.9357,-0.9371,-0.9399,-0.9407,-0.9398,-0.9433,-0.9434,-0.9424,-0.9422,-0.9413,-0.942,-0.9426,-0.9426,-0.9426,0,-0.9044,-0.9072,-0.9105,-0.9146,-0.9157,-0.9174,-0.9208,-0.923,-0.9264,-0.9279,-0.9303,-0.9324,-0.9351,-0.9356,-0.9394,-0.9387,-0.9403,-0.9419,-0.942,-0.9424,-0.943,-0.9426,-0.9423,-0.9424,-0.9429,-0.9428,-0.9428,0,-0.9025,-0.9071,-0.9097,-0.9113,-0.9161,-0.9173,-0.9194,-0.9227,-0.9246,-0.9276,-0.9289,-0.9321,-0.9339,-0.9364,-0.9394,-0.9395,-0.9428,-0.9436,-0.9443,-0.9442,-0.9448,-0.9447,-0.9448,-0.9458,-0.9458,-0.9458,-0.9458,0,-0.9025,-0.9044,-0.9089,-0.9105,-0.9128,-0.9161,-0.9183,-0.9206,-0.9236,-0.9258,-0.9284,-0.9304,-0.9342,-0.9367,-0.9391,-0.9418,-0.9426,-0.944,-0.9446,-0.9438,-0.9436,-0.9449,-0.9449,-0.9459,-0.9459,-0.9458,-0.9458,0,-0.9007,-0.9038,-0.9069,-0.9112,-0.9124,-0.9139,-0.9176,-0.9194,-0.9218,-0.9246,-0.9254,-0.9293,-0.9324,-0.9356,-0.9398,-0.9414,-0.9441,-0.9449,-0.9429,-0.9433,-0.9438,-0.9437,-0.9447,-0.945,-0.9457,-0.9457,-0.9457,0,-0.9005,-0.9021,-0.9066,-0.9083,-0.9103,-0.9129,-0.9148,-0.9181,-0.9201,-0.9241,-0.9254,-0.9287,-0.9315,-0.9363,-0.9395,-0.9428,-0.9438,-0.9439,-0.9443,-0.9434,-0.9438,-0.9437,-0.9439,-0.9437,-0.9437,-0.9437,-0.9437,0,-0.8999,-0.9014,-0.9041,-0.9073,-0.9096,-0.9123,-0.9152,-0.9164,-0.9203,-0.9224,-0.9255,-0.9277,-0.9321,-0.9353,-0.939,-0.9413,-0.9431,-0.9435,-0.9439,-0.943,-0.9418,-0.9425,-0.9426,-0.9435,-0.9435,-0.9435,-0.9435,-0.9435,-0.8989,-0.9005,-0.904,-0.9069,-0.9094,-0.912,-0.9139,-0.9166,-0.9193,-0.9231,-0.9249,-0.9281,-0.9317,-0.9368,-0.939,-0.9416,-0.9422,-0.9426,-0.9427,-0.9428,-0.9426,-0.9414,-0.9423,-0.9423,-0.9423,-0.9423,-0.9423,0,-0.8985,-0.9009,-0.9036,-0.9075,-0.9098,-0.9114,-0.9147,-0.9166,-0.9194,-0.9224,-0.9252,-0.9289,-0.9322,-0.9357,-0.9392,-0.9406,-0.9416,-0.9414,-0.9413,-0.9418,-0.9419,-0.9413,-0.9406,-0.9406,-0.9406,-0.9406,-0.9406,-0.9406,-0.8985,-0.9012,-0.9032,-0.9072,-0.9097,-0.9128,-0.9146,-0.9171,-0.9195,-0.9236,-0.9263,-0.9286,-0.9319,-0.9357,-0.9387,-0.9397,-0.9409,-0.9405,-0.9417,-0.9417,-0.9418,-0.9419,-0.9414,-0.9407,-0.9407,-0.9414,-0.9414,-0.9414]},{"header":{"parameterUnit":"m.s-1","parameterCategory":1,"la1":30.2991,"la2":30.254,"lo1":-89.0895,"lo2":-89.0444,"dy":0.0017,"dx":0.0017,"nx":28,"ny":28,"refTime":"2025-05-20T09:00:00:Z","depth":0,"parameterNumber":3,"parameterNumberName":"V-component_of_WINDS"},"data":[0,0,0,0,0,0,0,0,0,0,0,0,0,0,0,0,0,0,0,0,0,0,0,0,0,0,0,0,0,0,0,0,0,0,0,0,0,0,0,0,0,0,0,0,0,0,0,0,0,0,0,0,0,0,0,0,0,0,5.9053,5.9053,0,5.9024,5.9024,5.9023,5.8951,5.895,5.8948,5.8947,5.892,5.892,5.8921,0,0,0,0,0,0,0,0,0,0,0,0,0,5.9049,5.9049,5.9053,5.9052,5.9052,5.9024,5.9024,5.9023,5.8952,5.895,5.8948,5.8946,5.8919,5.892,5.8921,0,0,0,0,0,0,0,0,0,0,0,0,0,5.9038,5.9049,5.9053,5.9013,5.9009,5.9024,5.9023,5.9023,5.8952,5.895,5.8948,5.8945,5.8919,5.892,5.8921,5.8973,0,0,5.8924,5.8925,0,0,0,0,0,0,0,0,5.9039,5.9039,5.9019,5.9016,5.9011,5.8989,5.9012,5.9006,5.8953,5.8974,5.8947,5.8944,5.8945,5.8943,5.8943,5.8972,5.8971,5.8924,5.8925,5.8925,5.8926,0,0,0,0,0,0,0,5.904,5.9039,5.9041,5.9019,5.9014,5.8997,5.8993,5.9011,5.8972,5.8972,5.8967,5.8964,5.8942,5.8942,5.8942,5.897,5.8924,5.8925,5.8926,5.8926,5.904,5.9042,0,0,0,0,0,0,5.9046,5.904,5.9042,5.9041,5.902,5.8999,5.8995,5.8999,5.8972,5.8966,5.8966,5.8961,5.8942,5.8941,5.8941,5.8999,5.8925,5.8926,5.8927,5.9037,5.904,5.9043,0,0,0,0,0,0,5.9046,5.9047,5.9043,5.9039,5.9037,5.9002,5.9007,5.8999,5.8999,5.8968,5.8961,5.8973,5.894,5.8939,5.8965,5.8997,5.8927,5.8928,5.9035,5.9038,5.9042,5.9117,0,0,0,0,0,0,5.9046,5.9047,5.9066,5.904,5.9038,5.9068,5.9008,5.9,5.9001,5.8994,5.8972,5.8967,5.8938,5.8964,5.8966,5.8997,5.8929,5.9032,5.9036,5.9041,5.9112,5.9123,5.9133,0,0,0,0,0,5.9046,5.9089,5.9067,5.9068,5.906,5.907,5.9069,5.9034,5.9004,5.9023,5.9002,5.8967,5.8994,5.8967,5.8969,5.9001,5.9029,5.9035,5.904,5.9107,5.9121,5.9132,0,0,0,0,0,0,5.912,5.9085,5.906,5.9096,5.9086,5.9058,5.9081,5.905,5.905,5.9043,5.9002,5.8997,5.9029,5.9018,5.8989,5.905,5.9006,5.9012,5.9056,5.9069,5.9079,5.9081,5.8929,0,0,0,0,0,5.9141,5.9151,5.9119,5.9154,5.915,5.9117,5.9119,5.9094,5.9083,5.9079,5.906,5.9052,5.9058,5.9063,5.9067,5.911,5.9104,5.9133,5.9144,5.9152,5.9158,5.918,5.9192,5.9061,5.9061,5.9061,0,0,5.9183,5.9165,5.9174,5.9168,5.9158,5.917,5.9114,5.9129,5.9137,5.9081,5.9104,5.9091,5.9078,5.9113,5.9128,5.9105,5.9193,5.9159,5.9166,5.9167,5.9187,5.9199,5.921,5.9064,5.9064,5.9063,0,0,5.9266,5.9253,5.928,5.9271,5.9256,5.9233,5.924,5.9216,5.9205,5.9227,5.9185,5.9195,5.9207,5.92,5.9198,5.9279,5.9247,5.9281,5.9336,5.9358,5.9368,5.9377,5.9406,5.9417,5.9287,5.9287,5.9288,0,5.932,5.9336,5.9298,5.9315,5.9314,5.9263,5.9291,5.9284,5.9272,5.9272,5.9247,5.926,5.9249,5.9281,5.9301,5.9301,5.9307,5.9283,5.937,5.9378,5.9386,5.9413,5.9424,5.9292,5.9291,5.9291,5.929,0,5.9403,5.9415,5.9439,5.9427,5.9429,5.9451,5.9418,5.9424,5.9399,5.9379,5.9403,5.9387,5.9387,5.9393,5.9368,5.9422,5.9408,5.9377,5.9332,5.9403,5.9428,5.9438,5.9298,5.9296,5.9295,5.9294,0,0,5.9531,5.9498,5.9508,5.9502,5.9482,5.949,5.9511,5.951,5.9517,5.951,5.9527,5.9538,5.9509,5.9507,5.9481,5.9501,5.9566,5.9467,5.9466,5.9485,5.9624,5.9647,5.966,5.9544,5.9546,5.9548,5.9625,0,5.9609,5.9641,5.9608,5.9647,5.9657,5.961,5.9628,5.9618,5.96,5.9607,5.9588,5.9597,5.9558,5.9556,5.9573,5.9554,5.9593,5.9548,5.956,5.956,5.9563,5.9672,5.9697,5.977,5.9634,5.9636,5.9637,0,5.9703,5.97,5.974,5.9718,5.9721,5.9738,5.9734,5.9741,5.973,5.9716,5.9714,5.9682,5.9702,5.9658,5.9685,5.9655,5.9658,5.965,5.9652,5.9651,5.9603,5.9674,5.9793,5.9804,5.9652,5.965,5.9649,0,5.9792,5.9798,5.9823,5.9819,5.9794,5.9807,5.9797,5.9783,5.9785,5.9782,5.9783,5.9783,5.9784,5.9785,5.9755,5.9726,5.9786,5.9739,5.9775,5.9776,5.9789,5.9788,5.9909,5.9792,5.9792,5.9791,5.9791,0,5.9881,5.9908,5.9862,5.9877,5.9906,5.9868,5.9898,5.9883,5.9871,5.9883,5.9842,5.9855,5.9815,5.9823,5.9801,5.9826,5.9827,5.9816,5.981,5.9819,5.9821,5.982,5.9814,5.9794,5.9794,5.9793,5.9793,0,5.9985,5.9955,5.9979,5.9953,5.9947,5.9969,5.9947,5.9961,5.9941,5.9957,5.9958,5.9927,5.9935,5.9906,5.9909,5.9894,5.9931,5.9917,5.9935,5.993,5.9967,5.9964,6.0092,6.0107,5.998,5.9982,5.9983,0,6.0044,6.0063,6.0039,6.0043,6.0035,6.0044,6.0045,6.0009,6.0012,6.0001,6.0016,6.002,6.0022,6.0037,6.0015,6.0018,6.0003,6.0047,6.0003,6.0012,6.0003,6.0002,6.0004,6.0056,6.0058,6.0059,6.006,0,6.0151,6.0135,6.0138,6.0137,6.014,6.0137,6.0131,6.0138,6.0099,6.0105,6.0112,6.0114,6.0117,6.0122,6.012,6.011,6.008,6.0075,6.0083,6.0093,6.0103,6.0098,5.996,6.0072,6.0071,6.007,6.0069,6.0069,6.0233,6.0248,6.0233,6.0238,6.023,6.0226,6.0238,6.0219,6.0224,6.0223,6.0202,6.0214,6.0202,6.0196,6.019,6.0199,6.0178,6.019,6.0193,6.0197,6.0203,6.0102,6.0198,6.0198,6.0198,6.0197,6.0197,0,6.0338,6.0327,6.0332,6.0325,6.0329,6.0299,6.0291,6.0297,6.0308,6.0299,6.0301,6.031,6.0315,6.0294,6.0296,6.0307,6.0293,6.0309,6.0308,6.0306,6.0221,6.0214,6.0321,6.0321,6.0321,6.0321,6.0321,6.0321,6.0393,6.0417,6.04,6.0419,6.0407,6.0417,6.0416,6.0412,6.0405,6.0416,6.042,6.0406,6.0392,6.0393,6.0397,6.0391,6.0393,6.0414,6.0403,6.0324,6.0312,6.0301,6.0293,6.0415,6.0415,6.0487,6.0488,6.0488]}]]